Location: Oulou
(10.7667°N, 12.5167°W)
Time: 12:23:41
(UTC+00:00)

CZ-2C R/B - Pass Details

Date: 20 September 2019
Orbit: 639 x 705 km, 98.4° (Epoch: 18 October)

Event Time Altitude Azimuth Distance (km) Brightness Sun altitude
Rises 19:39:07 0° 20° (NNE) 2,931 6.9 -13.5°
Reaches altitude 10° 19:41:22 10° 25° (NNE) 2,023 6.0 -14.0°
Maximum altitude 19:45:38 52° 102° (ESE) 798 3.7 -15.1°
Drops below altitude 10° 19:49:56 10° 178° (S) 2,037 6.1 -16.1°
Sets 19:52:12 0° 183° (S) 2,953 7.0 -16.7°
